User: anonymous   Login
Location: Chagrin Falls Park
(41.4139°N, 81.3865°W)
Time: 23:04:50
(UTC+00:00)
Language:

STARLINK-2758 - Orbit

View from above orbital plane
View from above orbital plane
View from above satellite
View from above satellite

Ground track
Ground track

The orbit data is extracted from the following two-line orbital elements,

1 48638C 21044A   21300.76872313  .00049327  00000-0  33081-2 0  3001
2 48638  53.0555  71.9956 0001431  75.1153  76.8537 15.06315279    18
Epoch (UTC): 27 October 2021 18:26:57
Eccentricity: 0.0001431
inclination: 53.0555°
perigee height: 546 km
apogee height: 548 km
right ascension of ascending node: 71.9956°
argument of perigee: 75.1153°
revolutions per day: 15.06315279
mean anomaly at epoch: 76.8537°
orbit number at epoch: 1

The dashed part of the orbit path shows where the satellite is in the earth's shadow,  

DLR